Miscellaneous Local Product
Issued by NWS North Platte, NE

Home | Current Version | Previous Version | Text Only | Print | Product List | Glossary On
Versions: 1 2 3 4 5 6 7 8 9 10 11 12 13 14 15 16 17 18 19 20 21 22 23 24 25 26 27 28 29 30 31 32 33 34 35 36 37 38 39 40 41 42 43 44 45 46 47 48 49 50
000
AXUS43 KLBF 040110
MISLBF


WESTERN AND NORTH CENTRAL NEBRASKA HOURLY WEATHER ROUNDUP
NATIONAL WEATHER SERVICE NORTH PLATTE NE
800 PM CDT SUN MAY 03 2015

***STATIONS NOT REPORTING VARIABLES SUCH AS SKY/WEATHER OR
PRESSURE ARE PROVIDED BY THE NEBRASKA DEPARTMENT OF
ROADS...RAWS...AND APRS NETWORKS...AND ARE NOT UNDER
NATIONAL WEATHER SERVICE QUALITY CONTROL***

...OBSERVATIONS IN AND NEAR THE EASTERN PANHANDLE OF NEBRASKA...

CITY           SKY/WX    TMP DP  RH WIND       PRES   REMARKS
PINE RIDGE     PTCLDY    65  38  36 E13G22    29.99R
CHADRON        CLOUDY    66  40  38 E14       29.98R
ALLIANCE       CLOUDY    64  40  41 NE12      29.99R
SIDNEY         CLOUDY    65  42  43 N9        30.00R
WHITECLAY        N/A     64  37  36 E10         N/A
CRESCENT LAKE    N/A     65  37  34 E9G20       N/A
BIG SPRINGS      N/A     70  42  35 NE14        N/A
$$

...OBSERVATIONS IN NORTH CENTRAL NEBRASKA...

CITY           SKY/WX    TMP DP  RH WIND       PRES   REMARKS
VALENTINE      CLEAR     68  35  29 NE16      29.97R
THEDFORD       CLEAR     67  40  37 NE14G20   29.96R
AINSWORTH      CLOUDY    68  36  30 N17       29.96R
O`NEILL        PTCLDY    69  40  34 N21G29    29.89R
ORD            CLEAR     72  47  40 N20G31    29.83R
BROKEN BOW     CLEAR     71  45  39 N21G28    29.87R
BROWNLEE         N/A     68  35  30 N17         N/A
VALENTINE NWR    N/A     67  38  34 NE15G23     N/A
SPRINGVIEW       N/A     69  40  35 NE7         N/A
HALSEY           N/A     69  39  33 N9G20       N/A
BREWSTER         N/A     70  43  37 N15         N/A
ROSE             N/A     70  45  39 N20         N/A
NEWPORT          N/A     68  42  38 N9          N/A
SARGENT          N/A     70  46  41 NE3G20      N/A
COMSTOCK         N/A     77  52  40 N16         N/A
EWING            N/A     70  49  47 NE7         N/A
$$

...OBSERVATIONS IN SOUTHWEST NEBRASKA AND FAR NORTHEAST COLORADO...

CITY           SKY/WX    TMP DP  RH WIND       PRES   REMARKS
WRAY           FAIR      74  39  27 N15G23    29.90R
IMPERIAL       MOCLDY    72  41  32 NE12      29.89R
OGALLALA       CLOUDY    68  40  35 NE15G21   29.94R
NORTH PLATTE   PTCLDY    70  45  40 N17       29.90R
MCCOOK         PTCLDY    79  44  28 N17       29.82R
LEXINGTON      CLEAR     75  49  39 N12       29.83R
PAXTON           N/A     70  44  39 N12         N/A
SUTHERLAND       N/A     73  41  31 N13         N/A
GOTHENBURG       N/A     73  45  37 N12         N/A
CALLAWAY         N/A     70  49  47 N12         N/A
$$

...NORTH PLATTE AREA...

CITY           SKY/WX    TMP DP  RH WIND       PRES   REMARKS
AIRPORT        PTCLDY    70  45  40 N17       29.90R
DOWNTOWN         N/A     74  47  37 N8          N/A
$$

...SOME WEATHER OBSERVATIONS FROM AROUND THE REGION...

CITY           SKY/WX    TMP DP  RH WIND       PRES   REMARKS
DENVER         CLOUDY    55  46  71 NE12      30.04R
LARAMIE        LGT RAIN  50  41  71 SE12      30.08R
CHEYENNE       CLOUDY    52  44  74 E3        30.06S
SCOTTSBLUFF    CLOUDY    66  38  35 E10G20    29.99R
RAPID CITY     MOCLDY    63  34  33 NE13      30.03R
PIERRE         CLEAR     67  27  22 N13       29.97R
WINNER         FAIR      69  32  25 N20       29.96R
SIOUX FALLS    PTCLDY    66  38  35 N10       29.85S
OMAHA          LGT RAIN  75  61  61 SE21      29.72F
GRAND ISLAND   CLEAR     79  56  45 N18       29.76R
KANSAS CITY    MOCLDY    75  59  57 S18       29.83R
WICHITA        PTCLDY    76  58  53 S17       29.84R
HAYS           PTCLDY    79  48  34 S10       29.78R
LIBERAL        CLOUDY    63  48  59 W6G22     29.95R
GOODLAND       CLOUDY    75  43  31 N8        29.85S
$$



USA.gov is the U.S. government's official web portal to all federal, state and local government web resources and services.